Flag for Brazil Weather past 2 weeks in Itabuna, Bahia, Brazil

Now
75 °F

Passing clouds.


Feels Like: 77 °F
Forecast: 58 / 87 °F
Wind: 5 mph from Southeast

Location: Salvador Aeroporto

Current Time: Sep 3, 2015 at 10:36:14 PM

Latest Report: Sep 3, 2015 at 10:00 PM


Visibility: N/A

Pressure: 30.04 "Hg

Humidity: 69%

Dew point: 64 °F

Location of ItabunaLocation

Historic Weather in Itabuna — Graph

°F

Itabuna temperature yesterday

Maximum temperature yesterday: 81 °F (at 11:00 AM)
Minimum temperature yesterday: 66 °F (at 5:00 AM)
Average temperature yesterday: 76 °F

Past Weeks' High & Low Weather Summary

 TemperatureHumidityPressure
High82 °F (Aug 21, 11:00 AM)100% (Aug 25, 8:00 AM)30.15 "Hg (Aug 25, 8:00 AM)
Low66 °F (Aug 20, 5:00 AM)54% (Sep 3, 3:00 PM)29.95 "Hg (Aug 20, 2:00 PM)
Average76 °F73%30.03 "Hg
* Reported Aug 19 9:00 PM — Sep 3 9:00 PM, Itabuna, Weather by CustomWeather, © 2015

Note: Actual official high and low records may vary slightly from our data, if they occured in-between our weather recording intervals... More about our weather records

Advertising

Itabuna weather history for previous 24 hours

 ConditionsComfort  
Time TempWeatherWind HumidityBarometerVisibility
9:00 PM
Thu, Sep 3
75 °FClear.5 mph69%30.04 "Hg10 mi
8:00 PM75 °FClear.6 mph69%30.01 "Hg10 mi
7:00 PM73 °FPassing clouds.6 mph74%30.01 "HgN/A
6:00 PM75 °FPassing clouds.5 mph65%30.01 "HgN/A
5:00 PM77 °FPassing clouds.6 mph61%30.01 "HgN/A
4:00 PM79 °FPassing clouds.8 mph61%29.98 "HgN/A
3:00 PM81 °FScattered clouds.8 mph54%29.98 "HgN/A
2:00 PM81 °FScattered clouds.8 mph58%30.01 "HgN/A
1:00 PM81 °FScattered clouds.10 mph58%30.04 "HgN/A
12:00 PM81 °FScattered clouds.9 mph58%30.04 "HgN/A
11:00 AM81 °FScattered clouds.7 mph62%30.07 "HgN/A
10:00 AM81 °FScattered clouds.7 mph62%30.09 "HgN/A
9:00 AM81 °FScattered clouds.8 mph62%30.07 "HgN/A
8:00 AM79 °FScattered clouds.8 mph65%30.07 "HgN/A
7:00 AM75 °FScattered clouds.6 mph69%30.04 "HgN/A
6:00 AM75 °FScattered clouds.6 mph69%30.04 "HgN/A
5:00 AM75 °FPassing clouds.8 mph69%30.01 "HgN/A
4:00 AM75 °FPassing clouds.6 mph69%30.01 "HgN/A
3:00 AM75 °FPassing clouds.8 mph69%30.04 "HgN/A
2:00 AM75 °FPassing clouds.9 mph65%30.04 "HgN/A
1:00 AM75 °FPassing clouds.9 mph65%30.07 "HgN/A
12:00 AM77 °FPassing clouds.12 mph65%30.07 "HgN/A
11:00 PM
Wed, Sep 2
77 °FPassing clouds.10 mph65%30.07 "HgN/A
10:00 PM77 °FPassing clouds.9 mph69%30.07 "HgN/A
Weather by CustomWeather, © 2015

See weather overviewHow to use our weather pages